Home > Time Zones > World Clock > Weather > Italy > Milan > Past weeks

Flag Weather past 2 weeks in Milan, Italy

Now
50 °F

Fog.


Feels Like: 50 °F
Forecast: 45 / 62 °F
Wind: 2 mph from North

Location: Milan / Linate

Current Time: Oct 31, 2014 at 10:18:22 AM

Latest Report: Oct 31, 2014 at 9:50 AM


Visibility: 2 mi

Pressure: 30.33 "Hg

Humidity: 94%

Dew point: 48 °F

Location of MilanLocation

Historic Weather in Milan — Graph

°F

Milan temperature yesterday

Maximum temperature yesterday: 61 °F (at 2:50 PM)
Minimum temperature yesterday: 43 °F (at 12:50 AM)
Average temperature yesterday: 51 °F

Past Weeks' High & Low Weather Summary

 TemperatureHumidityPressure
High77 °F (Oct 17, 4:20 PM)100% (Oct 17, 12:50 AM)30.36 "Hg (Oct 17, 12:50 AM)
Low39 °F (Oct 31, 4:50 AM)16% (Oct 22, 2:20 PM)29.62 "Hg (Oct 22, 12:20 AM)
Average59 °F74%30.09 "Hg
* Reported Oct 16 9:20 AM — Oct 31 8:50 AM, Milan, Weather by CustomWeather, © 2014

Note: Actual official high and low records may vary slightly from our data, if they occured in-between our weather recording intervals... More about our weather records

Advertising

Milan weather history for previous 24 hours

 ConditionsComfort  
Time TempWeatherWind HumidityBarometerVisibility
8:50 AM
Oct 31
46 °FFog.2 mph100%30.33 "Hg1 mi
8:20 AM43 °FFog.1 mph100%30.33 "Hg1 mi
7:50 AM41 °FLight fog.2 mph100%30.30 "Hg1 mi
7:20 AM41 °FLight fog.1 mph100%30.30 "Hg1 mi
6:50 AM41 °FLight fog.2 mph100%30.30 "Hg1 mi
6:20 AM41 °FLight fog.2 mph100%30.30 "Hg1 mi
5:50 AM41 °FLight fog.2 mph100%30.30 "Hg1 mi
5:20 AM41 °FLight fog.1 mph100%30.30 "Hg1 mi
4:50 AM39 °FLight fog.No wind100%30.30 "Hg1 mi
4:20 AM41 °FLight fog.2 mph100%30.30 "Hg1 mi
3:50 AM43 °FLight fog.No wind100%30.30 "Hg1 mi
3:20 AM43 °FLight fog.No wind100%30.30 "Hg1 mi
2:50 AM43 °FLight fog.1 mph100%30.30 "Hg1 mi
2:20 AM43 °FLight fog.No wind100%30.30 "Hg1 mi
1:50 AM45 °FLight fog.1 mph100%30.30 "Hg1 mi
1:20 AM43 °FLight fog.1 mph100%30.30 "Hg1 mi
12:50 AM45 °FLight fog.No wind100%30.30 "Hg1 mi
12:20 AM45 °FLight fog.No wind100%30.30 "Hg2 mi
11:50 PM
Oct 30
46 °FLight fog.No wind93%30.30 "Hg2 mi
11:20 PM46 °FFog.1 mph93%30.30 "Hg2 mi
10:50 PM46 °FFog.1 mph93%30.30 "Hg2 mi
10:20 PM46 °FFog.No wind93%30.30 "Hg2 mi
9:50 PM46 °FFog.No wind93%30.30 "Hg2 mi
9:20 PM48 °FFog.No wind87%30.27 "Hg2 mi
8:50 PM48 °FFog.1 mph87%30.27 "Hg2 mi
8:20 PM48 °FFog.2 mph94%30.27 "Hg2 mi
7:50 PM50 °FFog.2 mph82%30.27 "Hg2 mi
7:20 PM50 °FFog.1 mph88%30.27 "Hg2 mi
6:50 PM50 °FFog.2 mph88%30.24 "Hg2 mi
6:20 PM50 °FFog.2 mph82%30.24 "Hg2 mi
5:50 PM54 °FFog.2 mph72%30.24 "Hg2 mi
5:20 PM54 °FFog.3 mph72%30.24 "Hg2 mi
4:50 PM57 °FFog.5 mph63%30.24 "Hg2 mi
4:20 PM59 °FFog.5 mph59%30.24 "Hg3 mi
3:50 PM59 °FFog.5 mph59%30.21 "Hg3 mi
3:20 PM59 °FFog.6 mph59%30.24 "Hg3 mi
2:50 PM61 °FFog.6 mph55%30.24 "Hg3 mi
2:20 PM59 °FFog.6 mph59%30.24 "Hg3 mi
1:50 PM59 °FFog.5 mph59%30.24 "Hg3 mi
1:20 PM59 °FFog.7 mph59%30.24 "Hg3 mi
12:50 PM59 °FFog.7 mph59%30.24 "Hg2 mi
12:20 PM59 °FFog.7 mph59%30.24 "Hg2 mi
11:50 AM57 °FFog.7 mph63%30.24 "Hg2 mi
11:20 AM57 °FFog.6 mph63%30.27 "Hg2 mi
10:50 AM55 °FFog.5 mph72%30.27 "Hg2 mi
10:20 AM54 °FFog.5 mph77%30.24 "Hg2 mi
Weather by CustomWeather, © 2014

See weather overviewHow to use our weather pages